contact:dominique.lefevre@mio.osupytheas.fr, maurice.libes@osupytheas.fr, didier.mallarino@osupytheas.fr
Project:EMSO http://www.emso-fr.org/EMSO-France
Depth: 2436.0 m
Title:EMSO Ligure Ouest : Data MII capteur CSTAR
DateTime,Latitude,Longitude,Instrument_Serial,Reference_Counts,Signal_Counts,Corrected_Signal_raw_counts,Calculated_Beam_c_inverse_meters,Internal_thermistor_counts
DateTime,Latitude,Longitude,Instrument_Serial,Reference_Counts,Signal_Counts,Corrected_Signal_raw_counts,Calculated_Beam_c_inverse_meters,Internal_thermistor_counts
2020-01-21T00:01:36,42.805,6.029,CST-1368DR,6925,9706,15254,0.094,550
2020-01-21T00:04:38,42.805,6.029,CST-1368DR,6925,9705,15252,0.094,550
2020-01-21T00:07:40,42.805,6.029,CST-1368DR,6925,9705,15252,0.094,551
2020-01-21T00:10:42,42.805,6.029,CST-1368DR,6925,9705,15252,0.094,551
2020-01-21T00:13:43,42.805,6.029,CST-1368DR,6925,9707,15255,0.094,551
2020-01-21T00:16:45,42.805,6.029,CST-1368DR,6925,9705,15253,0.094,551
2020-01-21T00:19:46,42.805,6.029,CST-1368DR,6925,9703,15249,0.095,551
2020-01-21T00:22:48,42.805,6.029,CST-1368DR,6925,9706,15254,0.094,551
2020-01-21T00:25:50,42.805,6.029,CST-1368DR,6925,9706,15254,0.094,551
2020-01-21T00:28:51,42.805,6.029,CST-1368DR,6925,9706,15253,0.094,551
2020-01-21T00:31:53,42.805,6.029,CST-1368DR,6925,9703,15250,0.095,551
2020-01-21T00:34:55,42.805,6.029,CST-1368DR,6925,9705,15253,0.094,551
2020-01-21T00:37:56,42.805,6.029,CST-1368DR,6925,9705,15253,0.094,551
2020-01-21T00:40:58,42.805,6.029,CST-1368DR,6925,9705,15252,0.094,550
2020-01-21T00:44:00,42.805,6.029,CST-1368DR,6925,9704,15251,0.095,551
2020-01-21T00:47:01,42.805,6.029,CST-1368DR,6925,9705,15253,0.094,551
2020-01-21T00:50:03,42.805,6.029,CST-1368DR,6925,9704,15250,0.095,551
2020-01-21T00:53:05,42.805,6.029,CST-1368DR,6925,9706,15254,0.094,550
2020-01-21T00:56:06,42.805,6.029,CST-1368DR,6925,9705,15252,0.094,551
2020-01-21T00:59:08,42.805,6.029,CST-1368DR,6925,9705,15252,0.094,551
2020-01-21T01:02:10,42.805,6.029,CST-1368DR,6925,9705,15253,0.094,551
2020-01-21T01:05:11,42.805,6.029,CST-1368DR,6925,9705,15253,0.094,551
2020-01-21T01:08:13,42.805,6.029,CST-1368DR,6925,9706,15254,0.094,551
2020-01-21T01:11:15,42.805,6.029,CST-1368DR,6925,9705,15253,0.094,551
2020-01-21T01:14:17,42.805,6.029,CST-1368DR,6925,9705,15252,0.094,551
2020-01-21T01:17:18,42.805,6.029,CST-1368DR,6925,9707,15255,0.094,551
2020-01-21T01:20:20,42.805,6.029,CST-1368DR,6925,9705,15253,0.094,551
2020-01-21T01:23:22,42.805,6.029,CST-1368DR,6925,9704,15251,0.095,551
2020-01-21T01:26:23,42.805,6.029,CST-1368DR,6925,9706,15254,0.094,551
2020-01-21T01:29:25,42.805,6.029,CST-1368DR,6925,9706,15253,0.094,551
2020-01-21T01:32:27,42.805,6.029,CST-1368DR,6925,9705,15253,0.094,551
2020-01-21T01:35:28,42.805,6.029,CST-1368DR,6925,9704,15250,0.095,551
2020-01-21T01:38:30,42.805,6.029,CST-1368DR,6925,9706,15253,0.094,551
2020-01-21T01:41:31,42.805,6.029,CST-1368DR,6925,9704,15251,0.095,551
2020-01-21T01:44:33,42.805,6.029,CST-1368DR,6925,9706,15253,0.094,551
2020-01-21T01:47:35,42.805,6.029,CST-1368DR,6925,9706,15254,0.094,551
2020-01-21T01:50:36,42.805,6.029,CST-1368DR,6925,9705,15252,0.094,551
2020-01-21T01:53:38,42.805,6.029,CST-1368DR,6925,9705,15252,0.094,551
2020-01-21T01:56:40,42.805,6.029,CST-1368DR,6925,9705,15252,0.094,551
2020-01-21T01:59:42,42.805,6.029,CST-1368DR,6925,9706,15253,0.094,551
2020-01-21T02:02:43,42.805,6.029,CST-1368DR,6925,9705,15253,0.094,551
2020-01-21T02:05:45,42.805,6.029,CST-1368DR,6925,9704,15251,0.095,551
2020-01-21T02:08:46,42.805,6.029,CST-1368DR,6925,9705,15251,0.095,551
2020-01-21T02:11:48,42.805,6.029,CST-1368DR,6925,9705,15253,0.094,551
2020-01-21T02:14:50,42.805,6.029,CST-1368DR,6925,9706,15253,0.094,551
2020-01-21T02:17:51,42.805,6.029,CST-1368DR,6925,9705,15251,0.095,551
2020-01-21T02:20:53,42.805,6.029,CST-1368DR,6925,9706,15253,0.094,551
2020-01-21T02:23:55,42.805,6.029,CST-1368DR,6925,9706,15254,0.094,551
2020-01-21T02:26:56,42.805,6.029,CST-1368DR,6925,9701,15246,0.096,551
2020-01-21T02:29:58,42.805,6.029,CST-1368DR,6925,9705,15252,0.094,551
2020-01-21T02:33:00,42.805,6.029,CST-1368DR,6925,9705,15252,0.094,551
2020-01-21T02:36:01,42.805,6.029,CST-1368DR,6925,9703,15249,0.095,551
2020-01-21T02:39:03,42.805,6.029,CST-1368DR,6925,9704,15251,0.095,551
2020-01-21T02:42:05,42.805,6.029,CST-1368DR,6925,9704,15251,0.095,551
2020-01-21T02:45:06,42.805,6.029,CST-1368DR,6925,9705,15252,0.094,551
2020-01-21T02:48:08,42.805,6.029,CST-1368DR,6925,9704,15251,0.095,551
2020-01-21T02:51:10,42.805,6.029,CST-1368DR,6925,9704,15251,0.095,551
2020-01-21T02:54:11,42.805,6.029,CST-1368DR,6925,9698,15241,0.097,551
2020-01-21T02:57:13,42.805,6.029,CST-1368DR,6925,9705,15252,0.094,551
2020-01-21T03:00:14,42.805,6.029,CST-1368DR,6925,9704,15250,0.095,551
2020-01-21T03:03:16,42.805,6.029,CST-1368DR,6925,9704,15251,0.095,551
2020-01-21T03:06:18,42.805,6.029,CST-1368DR,6925,9704,15251,0.095,551
2020-01-21T03:09:19,42.805,6.029,CST-1368DR,6925,9705,15252,0.094,551
2020-01-21T03:12:21,42.805,6.029,CST-1368DR,6924,9704,15253,0.094,551
2020-01-21T03:15:23,42.805,6.029,CST-1368DR,6924,9702,15250,0.095,551
2020-01-21T03:18:24,42.805,6.029,CST-1368DR,6925,9705,15252,0.094,551
2020-01-21T03:21:26,42.805,6.029,CST-1368DR,6925,9705,15252,0.094,550
2020-01-21T03:24:28,42.805,6.029,CST-1368DR,6925,9704,15251,0.095,551
2020-01-21T03:27:29,42.805,6.029,CST-1368DR,6925,9705,15252,0.094,551
2020-01-21T03:30:32,42.805,6.029,CST-1368DR,6924,9703,15252,0.094,551
2020-01-21T03:33:34,42.805,6.029,CST-1368DR,6925,9704,15250,0.095,551
2020-01-21T03:36:35,42.805,6.029,CST-1368DR,6925,9704,15251,0.095,550
2020-01-21T03:39:37,42.805,6.029,CST-1368DR,6925,9704,15250,0.095,551
2020-01-21T03:42:38,42.805,6.029,CST-1368DR,6925,9705,15252,0.094,551
2020-01-21T03:45:40,42.805,6.029,CST-1368DR,6925,9706,15253,0.094,551
2020-01-21T03:48:42,42.805,6.029,CST-1368DR,6925,9705,15253,0.094,551
2020-01-21T03:51:43,42.805,6.029,CST-1368DR,6924,9699,15245,0.096,551
2020-01-21T03:54:45,42.805,6.029,CST-1368DR,6924,9702,15249,0.095,551
2020-01-21T03:57:47,42.805,6.029,CST-1368DR,6924,9706,15256,0.093,551
2020-01-21T04:00:48,42.805,6.029,CST-1368DR,6924,9703,15252,0.094,551
2020-01-21T04:03:50,42.805,6.029,CST-1368DR,6924,9705,15254,0.094,551
2020-01-21T04:06:52,42.805,6.029,CST-1368DR,6924,9704,15253,0.094,551
2020-01-21T04:09:54,42.805,6.029,CST-1368DR,6924,9705,15254,0.094,551
2020-01-21T04:12:55,42.805,6.029,CST-1368DR,6924,9703,15251,0.095,551
2020-01-21T04:15:57,42.805,6.029,CST-1368DR,6924,9704,15253,0.094,551
2020-01-21T04:18:59,42.805,6.029,CST-1368DR,6924,9705,15254,0.094,551
2020-01-21T04:22:00,42.805,6.029,CST-1368DR,6924,9704,15253,0.094,551
2020-01-21T04:25:02,42.805,6.029,CST-1368DR,6924,9701,15248,0.095,551
2020-01-21T04:28:04,42.805,6.029,CST-1368DR,6924,9705,15254,0.094,551
2020-01-21T04:31:06,42.805,6.029,CST-1368DR,6924,9704,15253,0.094,551
2020-01-21T04:34:07,42.805,6.029,CST-1368DR,6924,9706,15255,0.094,551
2020-01-21T04:37:09,42.805,6.029,CST-1368DR,6924,9704,15252,0.094,551
2020-01-21T04:40:11,42.805,6.029,CST-1368DR,6924,9702,15249,0.095,551
2020-01-21T04:43:12,42.805,6.029,CST-1368DR,6924,9705,15254,0.094,551
2020-01-21T04:46:14,42.805,6.029,CST-1368DR,6924,9705,15254,0.094,551
2020-01-21T04:49:16,42.805,6.029,CST-1368DR,6924,9704,15253,0.094,551
2020-01-21T04:52:17,42.805,6.029,CST-1368DR,6924,9703,15251,0.095,551
2020-01-21T04:55:19,42.805,6.029,CST-1368DR,6924,9704,15252,0.094,551
2020-01-21T04:58:21,42.805,6.029,CST-1368DR,6924,9705,15255,0.094,551
2020-01-21T05:01:22,42.805,6.029,CST-1368DR,6924,9704,15253,0.094,551
2020-01-21T05:04:24,42.805,6.029,CST-1368DR,6924,9705,15254,0.094,551
2020-01-21T05:07:26,42.805,6.029,CST-1368DR,6924,9705,15254,0.094,551
2020-01-21T05:10:28,42.805,6.029,CST-1368DR,6924,9705,15254,0.094,551
2020-01-21T05:13:29,42.805,6.029,CST-1368DR,6924,9702,15249,0.095,551
2020-01-21T05:16:31,42.805,6.029,CST-1368DR,6924,9703,15251,0.095,551
2020-01-21T05:19:33,42.805,6.029,CST-1368DR,6924,9704,15252,0.094,551
2020-01-21T05:22:34,42.805,6.029,CST-1368DR,6924,9704,15252,0.094,551
2020-01-21T05:25:36,42.805,6.029,CST-1368DR,6924,9705,15254,0.094,551
2020-01-21T05:28:38,42.805,6.029,CST-1368DR,6924,9705,15254,0.094,551
2020-01-21T05:31:39,42.805,6.029,CST-1368DR,6924,9705,15254,0.094,551
2020-01-21T05:34:41,42.805,6.029,CST-1368DR,6924,9704,15252,0.094,551
2020-01-21T05:37:42,42.805,6.029,CST-1368DR,6924,9705,15254,0.094,551
2020-01-21T05:40:44,42.805,6.029,CST-1368DR,6924,9704,15253,0.094,551
2020-01-21T05:43:46,42.805,6.029,CST-1368DR,6924,9704,15253,0.094,551
2020-01-21T05:46:47,42.805,6.029,CST-1368DR,6924,9702,15249,0.095,551
2020-01-21T05:49:49,42.805,6.029,CST-1368DR,6924,9704,15252,0.094,551
2020-01-21T05:52:51,42.805,6.029,CST-1368DR,6924,9702,15249,0.095,551
2020-01-21T05:55:52,42.805,6.029,CST-1368DR,6924,9698,15243,0.097,551
2020-01-21T05:58:54,42.805,6.029,CST-1368DR,6924,9704,15252,0.094,551
2020-01-21T06:01:56,42.805,6.029,CST-1368DR,6924,9703,15251,0.095,551
2020-01-21T06:04:57,42.805,6.029,CST-1368DR,6924,9703,15252,0.094,551
2020-01-21T06:07:59,42.805,6.029,CST-1368DR,6924,9702,15250,0.095,551
2020-01-21T06:11:01,42.805,6.029,CST-1368DR,6924,9703,15251,0.095,550
2020-01-21T06:14:02,42.805,6.029,CST-1368DR,6924,9704,15253,0.094,551
2020-01-21T06:17:04,42.805,6.029,CST-1368DR,6924,9703,15251,0.095,551
2020-01-21T06:20:06,42.805,6.029,CST-1368DR,6924,9704,15252,0.094,551
2020-01-21T06:23:07,42.805,6.029,CST-1368DR,6924,9703,15251,0.095,551
2020-01-21T06:26:09,42.805,6.029,CST-1368DR,6924,9702,15249,0.095,551
2020-01-21T06:29:11,42.805,6.029,CST-1368DR,6924,9704,15252,0.094,551
2020-01-21T06:32:12,42.805,6.029,CST-1368DR,6924,9704,15252,0.094,550
2020-01-21T06:35:14,42.805,6.029,CST-1368DR,6924,9705,15254,0.094,551
2020-01-21T06:38:16,42.805,6.029,CST-1368DR,6924,9702,15250,0.095,551
2020-01-21T06:41:17,42.805,6.029,CST-1368DR,6923,9704,15254,0.094,551
2020-01-21T06:44:19,42.805,6.029,CST-1368DR,6924,9702,15249,0.095,551
2020-01-21T06:47:21,42.805,6.029,CST-1368DR,6924,9704,15252,0.094,551
2020-01-21T06:50:22,42.805,6.029,CST-1368DR,6924,9704,15252,0.094,551
2020-01-21T06:53:24,42.805,6.029,CST-1368DR,6923,9704,15254,0.094,551
2020-01-21T06:56:26,42.805,6.029,CST-1368DR,6923,9703,15254,0.094,551
2020-01-21T06:59:27,42.805,6.029,CST-1368DR,6923,9703,15254,0.094,551
2020-01-21T07:02:29,42.805,6.029,CST-1368DR,6923,9704,15255,0.094,551
2020-01-21T07:05:31,42.805,6.029,CST-1368DR,6923,9701,15250,0.095,551
2020-01-21T07:08:32,42.805,6.029,CST-1368DR,6923,9702,15251,0.095,551
2020-01-21T07:11:34,42.805,6.029,CST-1368DR,6923,9702,15251,0.095,551
2020-01-21T07:14:36,42.805,6.029,CST-1368DR,6923,9702,15252,0.094,551
2020-01-21T07:17:37,42.805,6.029,CST-1368DR,6923,9702,15251,0.095,551
2020-01-21T07:20:39,42.805,6.029,CST-1368DR,6923,9703,15253,0.094,551
2020-01-21T07:23:41,42.805,6.029,CST-1368DR,6923,9702,15252,0.094,551
2020-01-21T07:26:42,42.805,6.029,CST-1368DR,6923,9703,15253,0.094,551
2020-01-21T07:29:44,42.805,6.029,CST-1368DR,6923,9703,15253,0.094,551
2020-01-21T07:32:46,42.805,6.029,CST-1368DR,6923,9701,15250,0.095,551
2020-01-21T07:35:47,42.805,6.029,CST-1368DR,6923,9702,15252,0.094,551
2020-01-21T07:38:49,42.805,6.029,CST-1368DR,6923,9703,15253,0.094,551
2020-01-21T07:41:51,42.805,6.029,CST-1368DR,6923,9703,15253,0.094,551
2020-01-21T07:44:52,42.805,6.029,CST-1368DR,6923,9702,15252,0.094,551
2020-01-21T07:47:54,42.805,6.029,CST-1368DR,6923,9703,15254,0.094,551
2020-01-21T07:50:56,42.805,6.029,CST-1368DR,6923,9702,15252,0.094,551
2020-01-21T07:53:57,42.805,6.029,CST-1368DR,6923,9702,15252,0.094,551
2020-01-21T07:56:59,42.805,6.029,CST-1368DR,6923,9702,15252,0.094,551
2020-01-21T08:00:01,42.805,6.029,CST-1368DR,6923,9703,15254,0.094,551
2020-01-21T08:03:02,42.805,6.029,CST-1368DR,6923,9702,15252,0.094,551
2020-01-21T08:06:04,42.805,6.029,CST-1368DR,6923,9703,15253,0.094,551
2020-01-21T08:09:05,42.805,6.029,CST-1368DR,6923,9703,15253,0.094,550
2020-01-21T08:12:07,42.805,6.029,CST-1368DR,6923,9701,15250,0.095,551
2020-01-21T08:15:09,42.805,6.029,CST-1368DR,6923,9701,15251,0.095,551
2020-01-21T08:18:10,42.805,6.029,CST-1368DR,6923,9700,15249,0.095,551
2020-01-21T08:21:12,42.805,6.029,CST-1368DR,6923,9703,15253,0.094,551
2020-01-21T08:24:14,42.805,6.029,CST-1368DR,6923,9702,15251,0.095,551
2020-01-21T08:27:15,42.805,6.029,CST-1368DR,6923,9701,15249,0.095,551
2020-01-21T08:30:17,42.805,6.029,CST-1368DR,6923,9700,15248,0.095,551
2020-01-21T08:33:19,42.805,6.029,CST-1368DR,6923,9703,15253,0.094,551
2020-01-21T08:36:20,42.805,6.029,CST-1368DR,6923,9703,15253,0.094,551
2020-01-21T08:39:22,42.805,6.029,CST-1368DR,6923,9704,15254,0.094,551
2020-01-21T08:42:24,42.805,6.029,CST-1368DR,6923,9703,15254,0.094,551
2020-01-21T08:45:25,42.805,6.029,CST-1368DR,6923,9702,15251,0.095,551
2020-01-21T08:48:27,42.805,6.029,CST-1368DR,6923,9702,15252,0.094,551
2020-01-21T08:51:29,42.805,6.029,CST-1368DR,6923,9703,15253,0.094,551
2020-01-21T08:54:30,42.805,6.029,CST-1368DR,6923,9703,15253,0.094,551
2020-01-21T08:57:32,42.805,6.029,CST-1368DR,6923,9703,15254,0.094,551
2020-01-21T09:00:34,42.805,6.029,CST-1368DR,6923,9701,15250,0.095,551
2020-01-21T09:03:36,42.805,6.029,CST-1368DR,6923,9702,15251,0.095,551
2020-01-21T09:06:38,42.805,6.029,CST-1368DR,6923,9703,15253,0.094,551
2020-01-21T09:09:39,42.805,6.029,CST-1368DR,6923,9702,15252,0.094,551
2020-01-21T09:12:41,42.805,6.029,CST-1368DR,6923,9702,15252,0.094,551
2020-01-21T09:15:43,42.805,6.029,CST-1368DR,6923,9702,15251,0.095,551
2020-01-21T09:18:44,42.805,6.029,CST-1368DR,6923,9703,15253,0.094,551
2020-01-21T09:21:46,42.805,6.029,CST-1368DR,6923,9702,15251,0.095,551
2020-01-21T09:24:48,42.805,6.029,CST-1368DR,6923,9703,15254,0.094,551
2020-01-21T09:27:49,42.805,6.029,CST-1368DR,6923,9702,15252,0.094,551
2020-01-21T09:30:51,42.805,6.029,CST-1368DR,6923,9702,15252,0.094,551
2020-01-21T09:33:53,42.805,6.029,CST-1368DR,6923,9702,15252,0.094,551
2020-01-21T09:36:55,42.805,6.029,CST-1368DR,6923,9701,15250,0.095,551
2020-01-21T09:39:56,42.805,6.029,CST-1368DR,6923,9703,15253,0.094,551
2020-01-21T09:42:58,42.805,6.029,CST-1368DR,6923,9703,15253,0.094,551
2020-01-21T09:46:00,42.805,6.029,CST-1368DR,6923,9702,15252,0.094,551
2020-01-21T09:49:01,42.805,6.029,CST-1368DR,6923,9703,15253,0.094,551
2020-01-21T09:52:03,42.805,6.029,CST-1368DR,6923,9703,15253,0.094,551
2020-01-21T09:55:04,42.805,6.029,CST-1368DR,6923,9702,15252,0.094,551
2020-01-21T09:58:06,42.805,6.029,CST-1368DR,6923,9702,15252,0.094,551
2020-01-21T10:01:08,42.805,6.029,CST-1368DR,6923,9702,15252,0.094,551
2020-01-21T10:04:10,42.805,6.029,CST-1368DR,6923,9702,15252,0.094,551
2020-01-21T10:07:12,42.805,6.029,CST-1368DR,6923,9702,15252,0.094,551
2020-01-21T10:10:13,42.805,6.029,CST-1368DR,6923,9702,15252,0.094,551
2020-01-21T10:13:15,42.805,6.029,CST-1368DR,6923,9702,15251,0.095,551
2020-01-21T10:16:17,42.805,6.029,CST-1368DR,6923,9701,15250,0.095,551
2020-01-21T10:19:19,42.805,6.029,CST-1368DR,6923,9702,15251,0.095,551
2020-01-21T10:22:20,42.805,6.029,CST-1368DR,6923,9702,15251,0.095,551
2020-01-21T10:25:22,42.805,6.029,CST-1368DR,6923,9702,15252,0.094,551
2020-01-21T10:28:24,42.805,6.029,CST-1368DR,6923,9702,15251,0.095,551
2020-01-21T10:31:25,42.805,6.029,CST-1368DR,6923,9702,15251,0.095,551
2020-01-21T10:34:27,42.805,6.029,CST-1368DR,6923,9701,15249,0.095,551
2020-01-21T10:37:29,42.805,6.029,CST-1368DR,6923,9701,15251,0.095,551
2020-01-21T10:40:30,42.805,6.029,CST-1368DR,6923,9702,15251,0.095,551
2020-01-21T10:43:32,42.805,6.029,CST-1368DR,6923,9701,15249,0.095,551
2020-01-21T10:46:34,42.805,6.029,CST-1368DR,6923,9702,15252,0.094,551
2020-01-21T10:49:35,42.805,6.029,CST-1368DR,6923,9702,15251,0.095,550
2020-01-21T10:52:37,42.805,6.029,CST-1368DR,6923,9701,15250,0.095,551
2020-01-21T10:55:39,42.805,6.029,CST-1368DR,6923,9701,15250,0.095,551
2020-01-21T10:58:40,42.805,6.029,CST-1368DR,6923,9701,15251,0.095,551
2020-01-21T11:01:42,42.805,6.029,CST-1368DR,6923,9702,15251,0.095,551
2020-01-21T11:04:44,42.805,6.029,CST-1368DR,6923,9702,15252,0.094,551
2020-01-21T11:07:45,42.805,6.029,CST-1368DR,6923,9702,15252,0.094,551
2020-01-21T11:10:47,42.805,6.029,CST-1368DR,6923,9701,15251,0.095,551
2020-01-21T11:13:49,42.805,6.029,CST-1368DR,6923,9702,15251,0.095,551
2020-01-21T11:16:50,42.805,6.029,CST-1368DR,6923,9702,15251,0.095,551
2020-01-21T11:19:52,42.805,6.029,CST-1368DR,6923,9702,15252,0.094,551
2020-01-21T11:22:54,42.805,6.029,CST-1368DR,6923,9702,15251,0.095,551
2020-01-21T11:25:55,42.805,6.029,CST-1368DR,6923,9702,15252,0.094,551
2020-01-21T11:28:57,42.805,6.029,CST-1368DR,6923,9702,15251,0.095,551
2020-01-21T11:31:59,42.805,6.029,CST-1368DR,6923,9702,15251,0.095,551
2020-01-21T11:35:00,42.805,6.029,CST-1368DR,6922,9702,15254,0.094,551
2020-01-21T11:38:02,42.805,6.029,CST-1368DR,6922,9701,15251,0.095,551
2020-01-21T11:41:04,42.805,6.029,CST-1368DR,6922,9701,15253,0.094,551
2020-01-21T11:44:05,42.805,6.029,CST-1368DR,6923,9700,15249,0.095,551
2020-01-21T11:47:07,42.805,6.029,CST-1368DR,6922,9701,15252,0.094,551
2020-01-21T11:50:09,42.805,6.029,CST-1368DR,6922,9701,15253,0.094,551
2020-01-21T11:53:10,42.805,6.029,CST-1368DR,6922,9701,15253,0.094,551
2020-01-21T11:56:12,42.805,6.029,CST-1368DR,6922,9699,15248,0.095,551
2020-01-21T11:59:14,42.805,6.029,CST-1368DR,6922,9701,15252,0.094,551
2020-01-21T12:02:15,42.805,6.029,CST-1368DR,6923,9702,15251,0.095,551
2020-01-21T12:05:17,42.805,6.029,CST-1368DR,6922,9702,15253,0.094,551
2020-01-21T12:08:18,42.805,6.029,CST-1368DR,6922,9702,15254,0.094,551
2020-01-21T12:11:20,42.805,6.029,CST-1368DR,6922,9697,15245,0.096,551
2020-01-21T12:14:22,42.805,6.029,CST-1368DR,6922,9698,15248,0.095,551
2020-01-21T12:17:23,42.805,6.029,CST-1368DR,6922,9701,15252,0.094,551
2020-01-21T12:20:25,42.805,6.029,CST-1368DR,6922,9701,15253,0.094,551
2020-01-21T12:23:27,42.805,6.029,CST-1368DR,6922,9701,15252,0.094,551
2020-01-21T12:26:28,42.805,6.029,CST-1368DR,6922,9701,15253,0.094,551
2020-01-21T12:29:30,42.805,6.029,CST-1368DR,6922,9701,15253,0.094,551
2020-01-21T12:32:32,42.805,6.029,CST-1368DR,6922,9701,15252,0.094,551
2020-01-21T12:35:33,42.805,6.029,CST-1368DR,6922,9701,15252,0.094,551
2020-01-21T12:38:35,42.805,6.029,CST-1368DR,6922,9701,15251,0.095,551
2020-01-21T12:41:37,42.805,6.029,CST-1368DR,6922,9701,15251,0.095,551
2020-01-21T12:44:38,42.805,6.029,CST-1368DR,6922,9701,15251,0.095,551
2020-01-21T12:47:40,42.805,6.029,CST-1368DR,6922,9701,15253,0.094,551
2020-01-21T12:50:42,42.805,6.029,CST-1368DR,6922,9701,15252,0.094,550
2020-01-21T12:53:43,42.805,6.029,CST-1368DR,6922,9701,15252,0.094,551
2020-01-21T12:56:45,42.805,6.029,CST-1368DR,6922,9701,15253,0.094,551
2020-01-21T12:59:47,42.805,6.029,CST-1368DR,6922,9701,15252,0.094,551
2020-01-21T13:02:48,42.805,6.029,CST-1368DR,6922,9701,15252,0.094,551
2020-01-21T13:05:50,42.805,6.029,CST-1368DR,6922,9701,15252,0.094,551
2020-01-21T13:08:52,42.805,6.029,CST-1368DR,6922,9702,15253,0.094,551
2020-01-21T13:11:54,42.805,6.029,CST-1368DR,6922,9702,15253,0.094,551
2020-01-21T13:14:55,42.805,6.029,CST-1368DR,6922,9700,15250,0.095,551
2020-01-21T13:17:57,42.805,6.029,CST-1368DR,6922,9701,15252,0.094,550
2020-01-21T13:20:59,42.805,6.029,CST-1368DR,6922,9700,15251,0.095,551
2020-01-21T13:24:00,42.805,6.029,CST-1368DR,6922,9701,15251,0.095,551
2020-01-21T13:27:02,42.805,6.029,CST-1368DR,6922,9701,15253,0.094,551
2020-01-21T13:30:04,42.805,6.029,CST-1368DR,6922,9702,15253,0.094,551
2020-01-21T13:33:05,42.805,6.029,CST-1368DR,6922,9702,15253,0.094,550
2020-01-21T13:36:07,42.805,6.029,CST-1368DR,6922,9701,15252,0.094,551
2020-01-21T13:39:09,42.805,6.029,CST-1368DR,6922,9700,15250,0.095,551
2020-01-21T13:42:10,42.805,6.029,CST-1368DR,6922,9701,15252,0.094,551
2020-01-21T13:45:12,42.805,6.029,CST-1368DR,6922,9701,15251,0.095,551
2020-01-21T13:48:13,42.805,6.029,CST-1368DR,6922,9700,15251,0.095,551
2020-01-21T13:51:15,42.805,6.029,CST-1368DR,6922,9701,15251,0.095,551
2020-01-21T13:54:17,42.805,6.029,CST-1368DR,6922,9699,15249,0.095,551
2020-01-21T13:57:18,42.805,6.029,CST-1368DR,6922,9700,15251,0.095,551
2020-01-21T14:00:20,42.805,6.029,CST-1368DR,6922,9701,15252,0.094,551
2020-01-21T14:03:22,42.805,6.029,CST-1368DR,6922,9701,15252,0.094,551
2020-01-21T14:06:23,42.805,6.029,CST-1368DR,6922,9701,15252,0.094,551
2020-01-21T14:09:25,42.805,6.029,CST-1368DR,6922,9701,15251,0.095,551
2020-01-21T14:12:27,42.805,6.029,CST-1368DR,6922,9701,15252,0.094,551
2020-01-21T14:15:28,42.805,6.029,CST-1368DR,6922,9701,15251,0.095,551
2020-01-21T14:18:30,42.805,6.029,CST-1368DR,6922,9700,15250,0.095,550
2020-01-21T14:21:32,42.805,6.029,CST-1368DR,6922,9699,15249,0.095,551
2020-01-21T14:24:33,42.805,6.029,CST-1368DR,6922,9700,15251,0.095,551
2020-01-21T14:27:35,42.805,6.029,CST-1368DR,6922,9701,15251,0.095,551
2020-01-21T14:30:37,42.805,6.029,CST-1368DR,6922,9700,15251,0.095,551
2020-01-21T14:33:38,42.805,6.029,CST-1368DR,6922,9700,15251,0.095,551
2020-01-21T14:36:40,42.805,6.029,CST-1368DR,6922,9700,15251,0.095,551
2020-01-21T14:39:41,42.805,6.029,CST-1368DR,6922,9700,15251,0.095,551
2020-01-21T14:42:43,42.805,6.029,CST-1368DR,6922,9700,15250,0.095,550
2020-01-21T14:45:45,42.805,6.029,CST-1368DR,6922,9701,15252,0.094,551
2020-01-21T14:48:46,42.805,6.029,CST-1368DR,6922,9699,15249,0.095,551
2020-01-21T14:51:48,42.805,6.029,CST-1368DR,6922,9700,15251,0.095,551
2020-01-21T14:54:50,42.805,6.029,CST-1368DR,6922,9700,15251,0.095,551
2020-01-21T14:57:51,42.805,6.029,CST-1368DR,6922,9698,15247,0.096,551
2020-01-21T15:00:53,42.805,6.029,CST-1368DR,6922,9701,15252,0.094,551
2020-01-21T15:03:55,42.805,6.029,CST-1368DR,6922,9700,15251,0.095,551
2020-01-21T15:06:56,42.805,6.029,CST-1368DR,6922,9700,15250,0.095,551
2020-01-21T15:09:58,42.805,6.029,CST-1368DR,6922,9697,15246,0.096,551
2020-01-21T15:13:00,42.805,6.029,CST-1368DR,6922,9699,15249,0.095,551
2020-01-21T15:16:01,42.805,6.029,CST-1368DR,6922,9700,15250,0.095,550
2020-01-21T15:19:03,42.805,6.029,CST-1368DR,6922,9699,15249,0.095,551
2020-01-21T15:22:04,42.805,6.029,CST-1368DR,6922,9699,15249,0.095,551
2020-01-21T15:25:06,42.805,6.029,CST-1368DR,6922,9701,15252,0.094,551
2020-01-21T15:28:08,42.805,6.029,CST-1368DR,6922,9697,15246,0.096,551
2020-01-21T15:31:10,42.805,6.029,CST-1368DR,6922,9699,15249,0.095,551
2020-01-21T15:34:11,42.805,6.029,CST-1368DR,6922,9701,15251,0.095,551
2020-01-21T15:37:13,42.805,6.029,CST-1368DR,6922,9699,15248,0.095,550
2020-01-21T15:40:15,42.805,6.029,CST-1368DR,6922,9700,15251,0.095,551
2020-01-21T15:43:16,42.805,6.029,CST-1368DR,6922,9700,15251,0.095,551
2020-01-21T15:46:18,42.805,6.029,CST-1368DR,6921,9701,15254,0.094,551
2020-01-21T15:49:20,42.805,6.029,CST-1368DR,6922,9701,15252,0.094,551
2020-01-21T15:52:21,42.805,6.029,CST-1368DR,6921,9701,15253,0.094,551
2020-01-21T15:55:23,42.805,6.029,CST-1368DR,6922,9700,15250,0.095,551
2020-01-21T15:58:24,42.805,6.029,CST-1368DR,6921,9700,15252,0.094,551
2020-01-21T16:01:26,42.805,6.029,CST-1368DR,6921,9701,15254,0.094,551
2020-01-21T16:04:28,42.805,6.029,CST-1368DR,6921,9701,15253,0.094,551
2020-01-21T16:07:30,42.805,6.029,CST-1368DR,6921,9701,15254,0.094,551
2020-01-21T16:10:31,42.805,6.029,CST-1368DR,6921,9700,15253,0.094,550
2020-01-21T16:13:33,42.805,6.029,CST-1368DR,6921,9700,15253,0.094,551
2020-01-21T16:16:35,42.805,6.029,CST-1368DR,6921,9701,15253,0.094,551
2020-01-21T16:19:36,42.805,6.029,CST-1368DR,6921,9699,15251,0.095,550
2020-01-21T16:22:38,42.805,6.029,CST-1368DR,6921,9700,15252,0.094,551
2020-01-21T16:25:40,42.805,6.029,CST-1368DR,6921,9700,15253,0.094,551
2020-01-21T16:28:41,42.805,6.029,CST-1368DR,6921,9701,15254,0.094,551
2020-01-21T16:31:43,42.805,6.029,CST-1368DR,6921,9700,15252,0.094,550
2020-01-21T16:34:45,42.805,6.029,CST-1368DR,6921,9700,15253,0.094,551
2020-01-21T16:37:46,42.805,6.029,CST-1368DR,6921,9700,15253,0.094,551
2020-01-21T16:40:48,42.805,6.029,CST-1368DR,6921,9700,15253,0.094,551
2020-01-21T16:43:50,42.805,6.029,CST-1368DR,6921,9700,15253,0.094,551
2020-01-21T16:46:51,42.805,6.029,CST-1368DR,6921,9700,15253,0.094,551
2020-01-21T16:49:53,42.805,6.029,CST-1368DR,6921,9699,15250,0.095,551
2020-01-21T16:52:54,42.805,6.029,CST-1368DR,6921,9700,15252,0.094,551